GW5974 Weather Reports


time (UTC)temp
C
wind
direction
speed
KPH
gust
KPH
rain 1hr
cm
rain 24hr
cm
rain mn
cm
humidity
%
barometer
mb
20260503215744 16 239 16.1 25.7 0.00 0.00 0.00 36 1013.5
20260503215242 16 217 16.1 25.7 0.00 0.00 0.00 36 1013.2
20260503214740 16 301 11.3 24.1 0.00 0.00 0.00 37 1013.2
20260503214236 16 211 4.8 17.7 0.00 0.00 0.00 37 1013.2
20260503213735 17 216 12.9 22.5 0.00 0.00 0.00 36 1013.3
20260503213231 17 246 8.0 19.3 0.00 0.00 0.00 37 1013.1
20260503212728 16 254 16.1 25.7 0.00 0.00 0.00 37 1013.3
20260503212226 16 343 8.0 30.6 0.00 0.00 0.00 37 1013.2
20260503211723 16 275 8.0 19.3 0.00 0.00 0.00 38 1013.4
20260503211219 16 194 4.8 19.3 0.00 0.00 0.00 38 1013.3
20260503210715 16 253 11.3 29.0 0.00 0.00 0.00 38 1013.3
20260503210212 15 275 16.1 25.7 0.00 0.00 0.00 37 1013.4
20260503205708 16 218 12.9 25.7 0.00 0.00 0.00 38 1013.2
20260503205204 16 265 14.5 19.3 0.00 0.00 0.00 37 1013.3
20260503204700 16 235 9.7 22.5 0.00 0.00 0.00 39 1013.2
20260503204158 16 235 11.3 29.0 0.00 0.00 0.00 38 1013.4
20260503203655 16 264 8.0 22.5 0.00 0.00 0.00 38 1013.4
20260503203153 16 214 11.3 43.5 0.00 0.00 0.00 38 1013.5
20260503202650 16 215 6.4 12.9 0.00 0.00 0.00 38 1013.4
20260503202148 16 240 11.3 16.1 0.00 0.00 0.00 40 1013.5
20260503201646 16 272 22.5 29.0 0.00 0.00 0.00 37 1013.3
20260503201143 16 226 20.9 25.7 0.00 0.00 0.00 37 1013.5
20260503200639 17 213 12.9 24.1 0.00 0.00 0.00 37 1013.7
20260503200135 16 221 17.7 25.7 0.00 0.00 0.00 37 1013.7
20260503195632 16 241 14.5 24.1 0.00 0.00 0.00 35 1013.8
20260503195129 16 275 19.3 30.6 0.00 0.00 0.00 35 1013.9
20260503194626 16 205 12.9 25.7 0.00 0.00 0.00 36 1013.9
20260503194121 16 205 19.3 22.5 0.00 0.00 0.00 36 1013.7
20260503193619 16 202 9.7 22.5 0.00 0.00 0.00 37 1014.1
20260503193114 16 253 12.9 24.1 0.00 0.00 0.00 37 1014.3
20260503192610 16 254 19.3 30.6 0.00 0.00 0.00 35 1014.4
20260503192106 16 241 14.5 17.7 0.00 0.00 0.00 37 1014.1
20260503191603 16 235 12.9 30.6 0.00 0.00 0.00 38 1014.4
20260503191059 16 232 6.4 17.7 0.00 0.00 0.00 39 1014.3
20260503190557 16 227 9.7 22.5 0.00 0.00 0.00 36 1014.4
20260503190054 16 233 20.9 24.1 0.00 0.00 0.00 37 1014.5
20260503185550 16 235 17.7 24.1 0.00 0.00 0.00 37 1014.4
20260503185050 16 251 17.7 30.6 0.00 0.00 0.00 36 1014.7
20260503184546 16 225 8.0 33.8 0.00 0.00 0.00 38 1014.7
20260503184043 16 230 8.0 30.6 0.00 0.00 0.00 39 1014.8
20260503183539 16 218 12.9 25.7 0.00 0.00 0.00 37 1014.9
20260503183037 16 195 12.9 29.0 0.00 0.00 0.00 38 1014.9
20260503182535 16 218 14.5 19.3 0.00 0.00 0.00 38 1014.8
20260503182033 16 217 16.1 40.2 0.00 0.00 0.00 39 1014.9
20260503181529 16 209 14.5 22.5 0.00 0.00 0.00 39 1014.9
20260503181026 16 180 12.9 30.6 0.00 0.00 0.00 39 1015.2
20260503180523 16 212 20.9 33.8 0.00 0.00 0.00 39 1015.2
20260503180020 15 204 14.5 35.4 0.00 0.00 0.00 41 1015.1
20260503175518 15 179 12.9 22.5 0.00 0.00 0.00 38 1015.2
20260503175014 15 184 8.0 25.7 0.00 0.00 0.00 41 1015.3
20260503174512 16 228 14.5 22.5 0.00 0.00 0.00 40 1015.2
20260503174008 16 211 3.2 16.1 0.00 0.00 0.00 41 1015.6
20260503173503 16 189 3.2 11.3 0.00 0.00 0.00 45 1015.6
20260503173000 15 193 12.9 17.7 0.00 0.00 0.00 42 1015.5
20260503172457 15 213 11.3 22.5 0.00 0.00 0.00 43 1015.7
20260503171954 15 219 8.0 16.1 0.00 0.00 0.00 43 1015.7
20260503171451 15 192 4.8 16.1 0.00 0.00 0.00 41 1015.8
20260503170948 15 290 3.2 19.3 0.00 0.00 0.00 41 1015.9
20260503170444 15 204 11.3 24.1 0.00 0.00 0.00 41 1016.1
20260503150837 12 236 9.7 16.1 0.00 0.00 0.00 44 1016.9
20260503150333 12 181 4.8 19.3 0.00 0.00 0.00 44 1017.1
20260503140257 10 221 11.3 22.5 0.00 0.00 0.00 47 1017.3
20260503131227 7 206 11.3 19.3 0.00 0.00 0.00 53 1017.6
20260503130724 7 212 8.0 17.7 0.00 0.00 0.00 55 1017.6
20260503130221 7 214 9.7 19.3 0.00 0.00 0.00 55 1017.7
20260503120147 4 202 3.2 6.4 0.00 0.00 0.00 70 1017.7
20260503110615 2 195 1.6 4.8 0.00 0.00 0.00 79 1017.5
20260503110112 2 212 1.6 6.4 0.00 0.00 0.00 80 1017.4
20260503090502 2 174 0.0 1.6 0.00 0.00 0.00 84 1017.1
20260503081428 2 180 0.0 4.8 0.00 0.00 0.00 86 1017.3
20260503080925 1 179 0.0 0.0 0.00 0.00 0.00 85 1017.3
20260503080421 2 179 0.0 0.0 0.00 0.00 0.00 85 1017.4
20260503072858 2 179 0.0 1.6 0.00 0.00 0.00 83 1017.3
20260503072355 2 186 0.0 1.6 0.00 0.00 0.00 83 1017.3
20260503071851 2 198 1.6 1.6 0.00 0.00 0.00 83 1017.3
20260503071349 2 211 0.0 1.6 0.00 0.00 0.00 82 1017.3
20260503070844 2 187 0.0 1.6 0.00 0.00 0.00 82 1017.5
20260503070343 3 176 0.0 1.6 0.00 0.00 0.00 82 1017.3
20260503060314 3 182 0.0 1.6 0.00 0.00 0.00 83 1017.4
20260503054801 2 209 1.6 4.8 0.00 0.00 0.00 84 1017.6
20260503054258 2 166 0.0 0.0 0.00 0.00 0.00 84 1017.6
20260503053755 2 171 0.0 0.0 0.00 0.00 0.00 83 1017.6
20260503053254 2 175 0.0 1.6 0.00 0.00 0.00 83 1017.6
20260503052750 2 152 0.0 0.0 0.00 0.00 0.00 83 1017.7
20260503052247 2 172 0.0 0.0 0.00 0.00 0.00 83 1017.7
20260503051742 3 172 0.0 0.0 0.00 0.00 0.00 82 1017.6
20260503051240 3 172 0.0 0.0 0.00 0.00 0.00 82 1017.6
20260503050736 3 171 0.0 0.0 0.00 0.00 0.00 82 1017.6
20260503050232 3 173 0.0 0.0 0.00 0.00 0.00 81 1017.8
20260503045730 3 170 0.0 0.0 0.00 0.00 0.00 81 1017.5
20260503045228 3 165 0.0 0.0 0.00 0.00 0.00 80 1017.8
20260503044724 3 165 0.0 0.0 0.00 0.00 0.00 80 1017.8
20260503044221 3 165 0.0 0.0 0.00 0.00 0.00 79 1017.7
20260503043718 3 165 0.0 0.0 0.00 0.00 0.00 78 1017.8
20260503043216 4 165 0.0 0.0 0.00 0.00 0.00 77 1017.9
20260503042711 4 172 0.0 1.6 0.00 0.00 0.00 76 1017.6
20260503042208 4 171 0.0 1.6 0.00 0.00 0.00 76 1017.9
20260503041704 4 170 0.0 1.6 0.00 0.00 0.00 75 1017.8
20260503041202 5 173 0.0 0.0 0.00 0.00 0.00 74 1017.9
20260503040659 5 177 0.0 1.6 0.00 0.00 0.00 74 1017.8
20260503040157 5 192 0.0 1.6 0.00 0.00 0.00 73 1018.0
20260503035653 5 175 0.0 1.6 0.00 0.36 0.36 73 1017.9
20260503035151 5 197 3.2 4.8 0.00 0.36 0.36 72 1017.9
20260503034648 5 179 0.0 4.8 0.00 0.36 0.36 72 1018.0
20260503034145 5 201 3.2 6.4 0.00 0.36 0.36 71 1018.0
20260503033642 5 182 0.0 4.8 0.00 0.36 0.36 71 1018.0
20260503033140 5 199 3.2 6.4 0.00 0.36 0.36 71 1017.9
20260503032638 5 176 0.0 6.4 0.00 0.36 0.36 71 1018.0
20260503032137 5 197 1.6 6.4 0.00 0.36 0.36 71 1018.2
20260503031633 5 191 3.2 8.0 0.00 0.36 0.36 70 1018.1
20260503031131 5 216 3.2 4.8 0.00 0.36 0.36 70 1018.2
20260503030626 5 197 3.2 6.4 0.00 0.36 0.36 70 1018.0
20260503030123 6 175 0.0 1.6 0.00 0.36 0.36 70 1018.2
20260503025620 6 205 1.6 1.6 0.00 0.36 0.36 70 1018.0
20260503025118 6 177 1.6 4.8 0.00 0.36 0.36 69 1018.2
20260503024615 6 197 4.8 8.0 0.00 0.36 0.36 68 1018.2
20260503024112 6 209 6.4 6.4 0.00 0.36 0.36 68 1018.2
20260503023609 6 182 1.6 1.6 0.00 0.36 0.36 68 1018.4
20260503023106 6 199 3.2 4.8 0.00 0.36 0.36 68 1018.4
20260503022601 6 188 3.2 4.8 0.00 0.36 0.36 67 1018.3
20260503022056 6 177 0.0 1.6 0.00 0.36 0.36 67 1018.5
20260503021553 6 177 0.0 4.8 0.00 0.36 0.36 67 1018.4
20260503021050 6 202 3.2 4.8 0.00 0.36 0.36 67 1018.5
20260503020547 6 165 0.0 0.0 0.00 0.36 0.36 66 1018.4
20260503020044 6 179 0.0 4.8 0.00 0.36 0.36 65 1018.3
20260503015541 6 174 0.0 1.6 0.00 0.36 0.36 65 1018.4
20260503015038 6 174 0.0 1.6 0.00 0.36 0.36 65 1018.4
20260503014534 6 182 0.0 1.6 0.00 0.36 0.36 65 1018.2
20260503014032 6 160 0.0 1.6 0.00 0.36 0.36 64 1018.1
20260503013529 6 177 0.0 1.6 0.00 0.36 0.36 64 1018.2
20260503013027 6 177 0.0 0.0 0.00 0.36 0.36 63 1018.2
20260503012524 6 182 1.6 1.6 0.00 0.36 0.36 63 1018.1
20260503012020 6 182 1.6 1.6 0.00 0.36 0.36 63 1018.0
20260503011517 6 166 0.0 0.0 0.00 0.36 0.36 62 1018.1
20260503011014 6 166 0.0 0.0 0.00 0.36 0.36 63 1018.2
20260503010510 6 166 0.0 0.0 0.00 0.36 0.36 62 1018.0
20260503010008 6 166 0.0 0.0 0.00 0.36 0.36 62 1018.1
20260503005505 6 166 0.0 0.0 0.00 0.36 0.36 60 1018.0
20260503005002 6 165 0.0 0.0 0.00 0.36 0.36 60 1018.1
20260503004458 6 166 0.0 0.0 0.00 0.36 0.36 58 1018.1
20260503003956 6 164 0.0 0.0 0.00 0.36 0.36 58 1017.9
20260503003453 6 163 0.0 0.0 0.00 0.36 0.36 59 1017.9
20260503002950 6 163 0.0 0.0 0.00 0.36 0.36 58 1018.0
20260503002447 6 162 0.0 0.0 0.00 0.36 0.36 57 1018.0
20260503001943 6 170 0.0 0.0 0.00 0.36 0.36 57 1018.1
20260503001440 6 163 0.0 1.6 0.00 0.36 0.36 55 1018.1
20260503000938 6 154 0.0 0.0 0.00 0.36 0.36 55 1018.1
20260503000434 7 146 0.0 0.0 0.00 0.36 0.36 56 1017.9
20260502235932 7 129 0.0 1.6 0.00 0.36 0.36 54 1017.9
20260502235428 7 154 0.0 0.0 0.00 0.36 0.36 55 1017.9
20260502234926 7 141 0.0 1.6 0.00 0.36 0.36 55 1017.9
20260502234422 7 277 3.2 6.4 0.00 0.36 0.36 53 1017.9
20260502233919 7 182 0.0 1.6 0.00 0.36 0.36 54 1017.9
20260502233414 7 141 0.0 0.0 0.00 0.36 0.36 56 1018.1
20260502232912 7 122 1.6 1.6 0.00 0.36 0.36 55 1017.9
20260502232408 7 287 3.2 6.4 0.00 0.36 0.36 55 1017.9
20260502231905 7 241 4.8 8.0 0.00 0.36 0.36 54 1018.0
20260502231403 7 126 0.0 1.6 0.00 0.36 0.36 54 1018.1
20260502230901 7 310 6.4 6.4 0.00 0.36 0.36 52 1017.9
20260502230359 7 172 1.6 4.8 0.00 0.36 0.36 52 1018.0
20260502225855 7 133 0.0 1.6 0.00 0.36 0.36 55 1018.1
20260502225352 7 196 1.6 4.8 0.00 0.36 0.36 53 1018.2
20260502224849 7 151 0.0 4.8 0.00 0.36 0.36 53 1018.1
20260502224345 7 316 3.2 4.8 0.00 0.36 0.36 53 1018.2
20260502223843 7 350 1.6 4.8 0.00 0.36 0.36 52 1018.1
20260502223341 7 245 3.2 6.4 0.00 0.36 0.36 50 1018.2
20260502222838 7 330 3.2 12.9 0.00 0.36 0.36 51 1018.2
20260502222336 8 310 8.0 11.3 0.00 0.36 0.36 51 1018.2
20260502221831 8 0 9.7 12.9 0.00 0.36 0.36 49 1018.1
20260502221327 8 351 1.6 6.4 0.00 0.36 0.36 51 1018.1
20260502220825 8 309 3.2 8.0 0.00 0.36 0.36 50 1018.1
20260502220320 8 70 3.2 4.8 0.00 0.36 0.36 52 1018.2
20260502215817 8 234 4.8 12.9 0.00 0.36 0.36 51 1018.1